This is the latest recevied weather packets stored in our database for station/object DM1HF-13. If no packets are shown the sender has not sent any weather packets the latest 10 day(s).
| Time | Temp. | Humidity | Pressure | Rain* | Wind** | Luminosity | Snow |
|---|---|---|---|---|---|---|---|
| 1777626616 | 19.44° C | 38% | 1031.6 hPa | 0 mm | - | 562 W/m² | - |
| 1777626316 | 18.89° C | 38% | 1031.7 hPa | 0 mm | - | 566 W/m² | - |
| 1777626016 | 18.89° C | 38% | 1031.7 hPa | 0 mm | - | 569 W/m² | - |
| 1777625716 | 18.89° C | 38% | 1031.7 hPa | 0 mm | - | 573 W/m² | - |
| 1777625416 | 18.33° C | 38% | 1031.7 hPa | 0 mm | - | 573 W/m² | - |
| 1777625116 | 18.33° C | 39% | 1031.8 hPa | 0 mm | - | 571 W/m² | - |
| 1777624816 | 18.33° C | 39% | 1031.8 hPa | 0 mm | - | 573 W/m² | - |
| 1777624516 | 17.78° C | 40% | 1031.8 hPa | 0 mm | - | 575 W/m² | - |
| 1777624216 | 17.22° C | 40% | 1031.8 hPa | 0 mm | - | 572 W/m² | - |
| 1777623916 | 17.22° C | 41% | 1031.9 hPa | 0 mm | - | 570 W/m² | - |
| 1777623616 | 17.22° C | 41% | 1031.9 hPa | 0 mm | - | 569 W/m² | - |
| 1777623316 | 17.22° C | 39% | 1031.9 hPa | 0 mm | - | 568 W/m² | - |
| 1777623016 | 17.22° C | 41% | 1032 hPa | 0 mm | - | 566 W/m² | - |
| 1777622716 | 16.67° C | 40% | 1031.9 hPa | 0 mm | - | 564 W/m² | - |
| 1777622416 | 16.67° C | 39% | 1031.9 hPa | 0 mm | - | 559 W/m² | - |
| 1777622116 | 16.67° C | 40% | 1032 hPa | 0 mm | - | 556 W/m² | - |
| 1777621817 | 16.67° C | 40% | 1031.9 hPa | 0 mm | - | 552 W/m² | - |
| 1777621516 | 16.11° C | 42% | 1031.9 hPa | 0 mm | - | 547 W/m² | - |
| 1777621216 | 15.56° C | 45% | 1031.9 hPa | 0 mm | - | 542 W/m² | - |
| 1777620916 | 15.56° C | 44% | 1031.8 hPa | 0 mm | - | 537 W/m² | - |
| 1777620616 | 15° C | 46% | 1031.9 hPa | 0 mm | - | 529 W/m² | - |
| 1777620316 | 15° C | 46% | 1032 hPa | 0 mm | - | 522 W/m² | - |
| 1777620016 | 14.44° C | 50% | 1031.9 hPa | 0 mm | - | 518 W/m² | - |
| 1777619717 | 13.89° C | 51% | 1031.9 hPa | 0 mm | - | 510 W/m² | - |
| 1777619416 | 13.33° C | 51% | 1031.9 hPa | 0 mm | - | 499 W/m² | - |
* Rain latest hour (hover to see other rain measurements)
** Current wind speed in m/s (hover to see current wind gust speed)